Weather History for Kansas City International, MO

Change the Weather History Date:

Saturday, January 12, 2013

  Actual Average Record
Temperature  
Mean Temperature 37 °F 28 °F  
Max Temperature 53 °F 38 °F 69 °F (1960)
Min Temperature 20 °F 19 °F -20 °F (1912)
Degree Days  
Heating Degree Days 28 36  
Month to date heating degree days 363 432  
Since 1 July heating degree days 2201 2474  
Cooling Degree Days 0 0  
Month to date cooling degree days 0 0  
Year to date cooling degree days 0 0  
Moisture  
Dew Point 15 °F    
Average Humidity 55    
Maximum Humidity 76    
Minimum Humidity 34    
Precipitation  
Precipitation T in 0.02 in 1.33 in (1910)
Month to date precipitation 0.25 0.37  
Year to date precipitation 0.25 0.37  
Snow  
Snow T in 0.20 in 4.50 in (1964)
Month to date snowfall T 1.7  
Since 1 July snowfall 3.7 7.9  
Snow Depth T in    
Sea Level Pressure  
Sea Level Pressure 30.02 in    
Wind  
Wind Speed 11 mph (NW)    
Max Wind Speed 22 mph    
Max Gust Speed 28 mph    
Visibility 10 miles    
Events      
T = Trace of Precipitation, MM = Missing Value Source: NWS Daily Summary

Daily Weather History Graph

Daily Weather History Graph

Search for Another Location

Airport:

Trip Planner

Search our weather history database for the weather conditions in past years. The results will help you decide how hot, cold, wet, or windy it might be!

Date:

Astronomy

Jan. 12, 2013 Rise Set
Actual Time 7:37 AM CST 5:17 PM CST
Civil Twilight 7:08 AM CST 5:46 PM CST
Nautical Twilight 6:35 AM CST 6:19 PM CST
Astronomical Twilight 6:02 AM CST 6:52 PM CST
Moon 7:58 AM CST (1/12) 6:46 PM CST (1/12)
Length of Visible Light 10h 38m
Length of Day
9h 39m
New Moon, 1% of the Moon is Illuminated
Jan 12
New Moon
Jan 18
First Quarter
Jan 26
Full
Feb 3
Last Quarter
Feb 10
New

Hourly Weather History & Observations

Time (CST) Temp. Windchill Dew Point Humidity Pressure Visibility Wind Dir Wind Speed Gust Speed Precip Events Conditions
12:53 AM 48.9 °F - 21.9 °F 35% 29.77 in 8.0 mi West 16.1 mph 21.9 mph N/A   Scattered Clouds
1:09 AM 41.0 °F 32.5 °F 33.8 °F 76% 29.80 in 9.0 mi WNW 17.3 mph 26.5 mph N/A   Scattered Clouds
1:53 AM 37.0 °F 27.4 °F 30.9 °F 79% 29.86 in 10.0 mi West 17.3 mph 23.0 mph N/A   Mostly Cloudy
2:53 AM 33.1 °F 23.4 °F 26.1 °F 75% 29.91 in 10.0 mi WNW 13.8 mph 23.0 mph N/A   Scattered Clouds
3:53 AM 30.9 °F 22.2 °F 21.9 °F 69% 29.95 in 10.0 mi WNW 10.4 mph 18.4 mph N/A   Clear
4:53 AM 30.0 °F 20.5 °F 21.0 °F 69% 29.97 in 10.0 mi WNW 11.5 mph 19.6 mph N/A   Mostly Cloudy
5:53 AM 27.0 °F 18.0 °F 17.1 °F 66% 29.99 in 10.0 mi NW 9.2 mph - N/A   Partly Cloudy
6:53 AM 26.1 °F 18.4 °F 15.1 °F 63% 30.02 in 10.0 mi NW 6.9 mph - N/A   Partly Cloudy
7:53 AM 25.0 °F 17.1 °F 14.0 °F 63% 30.04 in 10.0 mi NW 6.9 mph - N/A   Scattered Clouds
8:53 AM 26.1 °F 16.2 °F 12.0 °F 55% 30.06 in 10.0 mi NW 10.4 mph - N/A   Mostly Cloudy
9:53 AM 28.0 °F 20.0 °F 12.9 °F 53% 30.09 in 10.0 mi NW 8.1 mph - N/A   Mostly Cloudy
10:53 AM 28.0 °F 20.0 °F 12.9 °F 53% 30.09 in 10.0 mi NW 8.1 mph - N/A   Overcast
11:53 AM 28.9 °F 19.8 °F 12.9 °F 51% 30.04 in 10.0 mi North 10.4 mph - N/A   Overcast
12:53 PM 28.9 °F 17.7 °F 12.9 °F 51% 30.04 in 10.0 mi NNW 15.0 mph - N/A   Overcast
1:53 PM 28.0 °F 20.0 °F 12.0 °F 51% 30.06 in 10.0 mi North 8.1 mph - N/A   Overcast
2:53 PM 27.0 °F 16.7 °F 10.0 °F 49% 30.03 in 10.0 mi North 11.5 mph - N/A   Overcast
3:53 PM 26.1 °F 15.0 °F 10.9 °F 53% 30.05 in 10.0 mi North 12.7 mph - N/A   Overcast
4:53 PM 25.0 °F 15.5 °F 10.0 °F 53% 30.09 in 10.0 mi NW 9.2 mph - N/A   Overcast
5:53 PM 25.0 °F 13.6 °F 10.0 °F 53% 30.13 in 10.0 mi NNW 12.7 mph - N/A   Overcast
6:53 PM 24.8 °F 15.3 °F 10.4 °F 54% 30.04 in 10.0 mi NNW 9.2 mph - N/A   Overcast
7:53 PM 24.1 °F 12.5 °F 12.0 °F 60% 30.08 in 10.0 mi NNW 12.7 mph - 0.00 in   Overcast
8:53 PM 24.1 °F 12.5 °F 10.0 °F 55% 30.07 in 10.0 mi NNW 12.7 mph - N/A   Overcast
9:53 PM 23.0 °F 11.1 °F 10.0 °F 58% 30.08 in 10.0 mi NNW 12.7 mph - N/A   Overcast
10:53 PM 21.9 °F 11.0 °F 10.0 °F 60% 30.10 in 10.0 mi NW 10.4 mph - N/A   Overcast
11:53 PM 19.9 °F 5.2 °F 9.0 °F 62% 30.11 in 10.0 mi NW 17.3 mph 20.7 mph N/A   Overcast